Weather History for KRKR - May, 2013

Change the Weather History Date:

Thursday, May 9, 2013

  Actual Average (KFSM) Record (KFSM)
Temperature  
Mean Temperature 70 °F 68 °F  
Max Temperature 78 °F 79 °F 91 °F (1962)
Min Temperature 62 °F 57 °F 40 °F (1980)
Cooling Degree Days 5 4  
Month to date cooling degree days 32  
Year to date cooling degree days 98  
Growing Degree Days 20 (Base 50)    
Moisture  
Dew Point 64 °F    
Average Humidity 81    
Maximum Humidity 100    
Minimum Humidity 61    
Precipitation  
Precipitation 0.03 in 0.17 in 3.18 in (1943)
Month to date precipitation 1.58  
Year to date precipitation 15.30  
Sea Level Pressure  
Sea Level Pressure 29.95 in    
Wind  
Wind Speed 4 mph (South)    
Max Wind Speed 14 mph    
Max Gust Speed 24 mph    
Visibility 10 miles    
Events Rain , Thunderstorm    
T = Trace of Precipitation, MM = Missing Value Source: NWS Daily Summary

Daily Weather History Graph

Daily Weather History Graph

Search for Another Location

Airport or City:

Trip Planner

Search our weather history database for the weather conditions in past years. The results will help you decide how hot, cold, wet, or windy it might be!

Date:

Astronomy

May. 09, 2013 Rise Set
Actual Time 6:19 AM CDT 8:10 PM CDT
Civil Twilight 5:51 AM CDT 8:38 PM CDT
Nautical Twilight 5:18 AM CDT 9:12 PM CDT
Astronomical Twilight 4:42 AM CDT 9:47 PM CDT
Moon 6:03 AM CDT (5/9) 8:06 PM CDT (5/9)
Length of Visible Light 14h 46m
Length of Day
13h 51m
Waning Crescent, 0% of the Moon is Illuminated
May 9
Waning Crescent
May 9
New
May 17
First Quarter
May 24
Full
May 31
Last Quarter

Hourly Weather History & Observations

Time (CDT) Temp. Dew Point Humidity Pressure Visibility Wind Dir Wind Speed Gust Speed Precip Events Conditions
12:15 AM 71.6 °F 62.6 °F 73% 29.98 in 10.0 mi Calm Calm - N/A   Mostly Cloudy
12:35 AM 71.6 °F 62.6 °F 73% 29.97 in 10.0 mi NNE 3.5 mph - N/A   Scattered Clouds
12:55 AM 69.8 °F 64.4 °F 83% 29.96 in 10.0 mi Calm Calm - N/A   Clear
1:35 AM 71.6 °F 64.4 °F 78% 29.93 in 10.0 mi Calm Calm - N/A Rain Light Rain
1:55 AM 66.2 °F 64.4 °F 94% 29.91 in 10.0 mi East 3.5 mph - N/A Rain Light Rain
3:15 AM 66.2 °F 62.6 °F 88% 29.92 in 10.0 mi Calm Calm - N/A   Clear
3:35 AM 66.2 °F 62.6 °F 88% 29.93 in 10.0 mi Calm Calm - N/A   Clear
3:55 AM 64.4 °F 62.6 °F 94% 29.93 in 10.0 mi Calm Calm - N/A   Clear
4:35 AM 69.8 °F 64.4 °F 83% 29.93 in 10.0 mi Calm Calm - N/A   Clear
4:55 AM 68.0 °F 62.6 °F 83% 29.93 in 10.0 mi Calm Calm - N/A   Clear
5:35 AM 71.6 °F 62.6 °F 73% 29.93 in 10.0 mi South 10.4 mph - N/A   Clear
5:55 AM 71.6 °F 62.6 °F 73% 29.94 in 10.0 mi South 6.9 mph - N/A   Clear
6:55 AM 68.0 °F 62.6 °F 83% 30.02 in 10.0 mi North 3.5 mph - N/A Thunderstorm Thunderstorm
8:35 AM 62.6 °F 59.0 °F 88% 30.06 in 10.0 mi Calm Calm - N/A   Overcast
8:55 AM 62.6 °F 59.0 °F 88% 30.02 in 10.0 mi ESE 6.9 mph - N/A   Overcast
9:15 AM 66.2 °F 59.0 °F 78% 30.01 in 10.0 mi SE 5.8 mph - N/A   Overcast
9:55 AM 71.6 °F 60.8 °F 69% 29.98 in - ESE 3.5 mph - 0.03 in   Clear
10:15 AM 73.4 °F 60.8 °F 65% 30.00 in 10.0 mi ESE 5.8 mph - N/A   Clear
10:35 AM 73.4 °F 60.8 °F 65% 29.99 in 10.0 mi South 8.1 mph - N/A   Clear
10:55 AM 73.4 °F 62.6 °F 69% 30.00 in 10.0 mi South 10.4 mph - N/A   Clear
11:15 AM 73.4 °F 64.4 °F 73% 30.00 in 10.0 mi SSE 13.8 mph 18.4 mph N/A   Mostly Cloudy
11:35 AM 73.4 °F 62.6 °F 69% 30.00 in 10.0 mi SSE 10.4 mph - N/A   Scattered Clouds
11:55 AM 77.0 °F 64.4 °F 65% 29.97 in 10.0 mi South 8.1 mph - N/A   Clear
12:15 PM 77.0 °F 62.6 °F 61% 29.95 in 10.0 mi SSE 9.2 mph - N/A   Clear
12:55 PM 77.0 °F 64.4 °F 65% 29.97 in 10.0 mi South 9.2 mph - N/A   Scattered Clouds
1:15 PM 78.8 °F 64.4 °F 61% 29.95 in 10.0 mi South 9.2 mph 16.1 mph N/A   Mostly Cloudy
1:35 PM 77.0 °F 64.4 °F 65% 29.95 in 10.0 mi South 10.4 mph 17.3 mph N/A   Overcast
1:55 PM 77.0 °F 68.0 °F 74% 29.96 in 10.0 mi SSW 13.8 mph 24.2 mph N/A   Overcast
2:15 PM 73.4 °F 66.2 °F 78% 29.95 in 10.0 mi SSW 11.5 mph 21.9 mph N/A   Overcast
2:35 PM 77.0 °F 68.0 °F 74% 29.97 in 10.0 mi South 11.5 mph 17.3 mph N/A   Overcast
2:55 PM 77.0 °F 68.0 °F 74% 29.96 in 10.0 mi SSW 10.4 mph - N/A   Overcast
3:15 PM 73.4 °F 68.0 °F 83% 29.96 in 10.0 mi South 11.5 mph - N/A   Overcast
3:35 PM 71.6 °F 64.4 °F 78% 29.98 in 10.0 mi SSW 10.4 mph 18.4 mph N/A   Overcast
3:55 PM 71.6 °F 66.2 °F 83% 29.97 in 10.0 mi South 8.1 mph - N/A   Overcast
4:15 PM 71.6 °F 66.2 °F 83% 29.96 in 10.0 mi SSE 5.8 mph - N/A   Overcast
4:35 PM 71.6 °F 66.2 °F 83% 29.94 in 10.0 mi SSE 4.6 mph - N/A Thunderstorm Mostly Cloudy
4:55 PM 71.6 °F 66.2 °F 83% 29.93 in 10.0 mi South 8.1 mph - N/A   Mostly Cloudy
5:15 PM 71.6 °F 68.0 °F 88% 29.94 in 10.0 mi South 12.7 mph - N/A Thunderstorm Scattered Clouds
5:35 PM 71.6 °F 68.0 °F 88% 29.93 in 10.0 mi SW 6.9 mph - N/A Rain Light Rain
5:55 PM 71.6 °F 64.4 °F 78% 29.93 in 10.0 mi SW 8.1 mph - N/A   Clear
6:15 PM 71.6 °F 64.4 °F 78% 29.93 in 10.0 mi SSW 6.9 mph - N/A   Clear
6:35 PM 71.6 °F 66.2 °F 83% 29.93 in 10.0 mi SW 6.9 mph - N/A   Clear
7:15 PM 71.6 °F 64.4 °F 78% 29.93 in 10.0 mi WSW 3.5 mph - N/A   Clear
7:35 PM 71.6 °F 64.4 °F 78% 29.92 in 10.0 mi WSW 3.5 mph - N/A   Clear
7:55 PM 71.6 °F 64.4 °F 78% 29.91 in 10.0 mi South 3.5 mph - N/A Rain Light Rain
8:15 PM 68.0 °F 64.4 °F 88% 29.92 in 10.0 mi Calm Calm - N/A   Clear
8:35 PM 68.0 °F 64.4 °F 88% 29.92 in 10.0 mi Calm Calm - N/A Rain Light Rain
8:55 PM 66.2 °F 64.4 °F 94% 29.90 in 10.0 mi Calm Calm - N/A   Scattered Clouds
9:15 PM 66.2 °F 64.4 °F 94% 29.91 in 10.0 mi Calm Calm - N/A   Mostly Cloudy
9:35 PM 66.2 °F 64.4 °F 94% 29.92 in 10.0 mi Calm Calm - N/A   Overcast
9:55 PM 66.2 °F 64.4 °F 94% 29.93 in 10.0 mi Calm Calm - N/A   Overcast
10:15 PM 66.2 °F 64.4 °F 94% 29.94 in 10.0 mi Calm Calm - N/A   Overcast
10:35 PM 66.2 °F 64.4 °F 94% 29.96 in 10.0 mi NE 3.5 mph - N/A Rain Light Rain
10:55 PM 66.2 °F 64.4 °F 94% 29.96 in 7.0 mi Calm Calm - N/A Rain Light Rain
11:15 PM 64.4 °F 62.6 °F 94% 29.96 in 10.0 mi Calm Calm - N/A Rain Light Rain
11:35 PM 64.4 °F 64.4 °F 100% 29.96 in 10.0 mi Calm Calm - N/A   Overcast